CAPE
0 0 0 0 0 0 0 0 0 0 0 0 0 0 0 0 0 0 0 0 0 0 0 0 0 0 0 0 0 0 0 0 0 0 0 0 0 0 0 0 0 0 0 0 0
0 0 0 0 0 0 0 0 0 0 0 0 0 0 0 0 0 0 0 0 0 0 0 0 0 0 0 0 0 0 0 0 0 0 0 0 0 0 0 0 0 0 0 0 0
0 0 0 0 0 0 0 0 0 0 0 0 0 0 0 0 0 0 0 0 0 0 0 0 0 0 0 0 0 0 0 0 0 0 0 0 0 0 0 0 0 0 0 0 0
0 0 0 0 0 0 0 0 0 0 0 0 0 0 0 0 0 0 0 0 0 0 0 0 0 0 0 0 0 0 0 0 0 0 0 0 0 0 0 0 0 0 0 0 0
0 0 0 0 0 0 0 0 0 0 0 0 0 0 0 0 0 0 0 0 0 0 0 0 0 0 0 0 0 0 0 0 0 0 0 0 0 0 0 0 0 0 0 0 0
0 0 0 0 0 0 0 0 0 0 0 0 0 0 0 0 0 0 0 0 0 0 0 0 0 0 0 0 0 0 0 0 0 0 0 0 0 0 0 0 0 0 0 0 0
0 0 0 0 0 0 0 0 0 0 0 0 0 0 0 0 0 0 0 0 0 0 0 0 0 0 0 0 0 0 0 0 0 0 0 0 0 0 0 0 0 0 0 0 0
1 2 0 0 0 0 0 0 0 0 0 0 0 0 0 0 0 0 0 0 0 0 0 0 0 0 0 0 0 0 0 0 0 0 0 0 0 0 0 0 0 0 0 0 0
0 0 0 0 0 0 0 0 0 0 0 0 0 0 0 0 0 0 0 0 0 0 0 0 0 0 0 0 0 0 0 0 0 0 0 0 0 0 0 0 0 0 0 0 0
0 0 0 0 0 0 0 0 0 0 0 0 0 0 0 0 0 0 0 0 0 0 0 0 0 0 0 0 0 0 0 0 0 0 0 0 0 0 0 0 0 0 0 0 0
0 0 0 0 0 0 0 0 0 0 0 0 0 0 0 0 0 0 0 0 0 0 0 0 0 0 0 0 0 0 0 0 0 0 0 0 0 0 0 0 0 0 0 0 0
0 0 0 0 0 0 0 0 0 0 0 0 0 0 0 0 0 0 0 0 0 0 0 0 0 0 0 0 0 0 0 0 0 0 0 0 0 0 0 0 0 0 0 0 0
0 0 0 0 0 0 0 0 0 0 0 0 0 0 0 0 0 0 0 0 0 0 0 0 0 0 0 0 0 0 0 0 0 0 0 0 0 0 0 0 0 0 0 0 0
0 0 0 0 0 0 0 0 0 0 0 0 0 0 0 0 0 0 0 0 0 0 0 0 0 0 0 0 0 0 0 0 0 0 0 0 0 0 0 0 0 0 0 0 0
0 0 0 0 0 0 0 0 0 0 0 0 0 0 0 0 0 0 0 0 0 0 0 0 0 0 0 0 0 0 0 0 0 0 0 0 0 0 0 0 0 0 0 0 0
0 0 0 0 0 0 0 0 0 0 0 0 0 0 0 0 0 0 0 0 0 0 0 0 0 0 0 0 0 0 0 0 0 0 0 0 0 0 0 0 0 0 0 0 0
0 0 0 0 0 0 0 0 0 0 0 0 0 0 0 0 0 0 0 0 0 0 0 0 0 0 0 0 0 0 0 0 0 0 0 0 0 0 0 0 0 0 0 0 0
0 0 0 0 0 0 0 0 0 0 0 0 0 0 0 0 0 0 0 0 0 0 0 0 0 0 0 0 0 0 0 0 0 0 0 0 0 0 0 0 0 0 0 0 0
0 0 0 0 0 0 0 0 0 0 0 0 0 0 0 0 0 0 0 0 0 0 0 0 0 0 0 0 0 0 0 0 0 0 0 0 0 0 0 0 0 0 0 0 0
0 0 0 0 0 11 0 0 0 0 0 0 0 0 0 0 0 0 0 0 0 0 0 0 0 0 0 0 0 0 0 0 0 0 0 0 0 0 0 0 0 0 0 0 0
0 0 0 0 2 14 0 0 0 0 0 0 0 0 0 0 0 0 0 0 0 0 0 0 0 0 0 0 0 0 0 0 0 0 0 0 0 0 0 0 0 0 0 0 0
0 0 0 1 6 12 4 0 0 0 0 0 0 0 0 0 0 0 0 0 0 0 0 0 0 0 0 0 0 0 0 0 0 0 0 0 0 0 0 0 0 0 0 0 0
0 0 0 1 8 0 1 3 2 1 0 0 0 0 0 0 0 0 0 0 0 0 0 0 0 0 0 0 0 0 0 0 0 0 0 0 0 0 0 0 0 0 0 0 0
0 0 0 0 0 8 10 4 2 4 0 0 0 0 0 0 0 0 0 0 0 0 0 0 0 0 0 0 0 0 0 0 0 0 0 0 0 0 0 0 0 0 0 0 0
0 0 0 0 5 0 2 5 4 7 12 0 1 0 0 0 0 0 0 0 0 0 0 0 0 0 0 0 0 0 0 0 0 0 0 0 0 0 0 0 0 0 0 0 0
0 0 0 0 0 0 0 12 2 0 0 0 0 0 0 0 0 0 0 0 0 0 0 0 0 0 0 0 0 0 0 0 0 0 0 0 0 0 0 0 0 0 0 0 0
6 0 3 0 0 0 0 0 15 0 0 0 0 1 0 0 0 0 0 0 0 0 0 0 0 0 0 0 0 0 0 0 0 0 0 0 0 0 0 0 0 0 0 0 0
CIN
-0 -0 -0 -0 -0 -0 -0 -0 -0 -0 -0 -0 -0 -0 -0 -0 -0 -0 -0 -0 -0 -0 -0 -0 -0 -0 -0 -0 -0 -0 -0 -0 -0 -0 -0 -0 -0 -0 -0 -0 -0 -0 -0 -0 -0
-0 -0 -0 -0 -0 -0 -0 -0 -0 -0 -0 -0 -0 -0 -0 -0 -0 -0 -0 -0 -0 -0 -0 -0 -0 -0 -0 -0 -0 -0 -0 -0 -0 -0 -0 -0 -0 -0 -0 -0 -0 -0 -0 -0 -0
-0 -0 -0 -0 -0 -0 -0 -0 -0 -0 -0 -0 -0 -0 -0 -0 -0 -0 -0 -0 -0 -0 -0 -0 -0 -0 -0 -0 -0 -0 -0 -0 -0 -0 -0 -0 -0 -0 -0 -0 -0 -0 -0 -0 -0
-0 -0 -0 -0 -0 -0 -0 -0 -0 -0 -0 -0 -0 -0 -0 -0 -0 -0 -0 -0 -0 -0 -0 -0 -0 -0 -0 -0 -0 -0 -0 -0 -0 -0 -0 -0 -0 -0 -0 -0 -0 -0 -0 -0 -0
-0 -0 -0 -0 -0 -0 -0 -0 -0 -0 -0 -0 -0 -0 -0 -0 -0 -0 -0 -0 -0 -0 -0 -0 -0 -0 -0 -0 -0 -0 -0 -0 -0 -0 -0 -0 -0 -0 -0 -0 -0 -0 -0 -0 -0
-15 -0 -0 -0 -0 -0 -0 -0 -0 -0 -0 -0 -0 -0 -0 -0 -0 -0 -0 -0 -0 -0 -0 -0 -0 -0 -0 -0 -0 -0 -0 -0 -0 -0 -0 -0 -0 -0 -0 -0 -0 -0 -0 -0 -0
-1 -0 -0 -0 -0 -0 -0 -0 -0 -0 -0 -0 -0 -0 -0 -0 -0 -0 -0 -0 -0 -0 -0 -0 -0 -0 -0 -0 -0 -0 -0 -0 -0 -0 -0 -0 -0 -0 -0 -0 -0 -0 -0 -0 -0
-0 -0 -0 -0 -0 -0 -0 -0 -0 -0 -0 -0 -0 -0 -0 -0 -0 -0 -0 -0 -0 -0 -0 -0 -0 -0 -0 -0 -0 -0 -0 -0 -0 -0 -0 -0 -0 -0 -0 -0 -0 -0 -0 -0 -0
-0 -0 -0 -0 -0 -0 -0 -0 -0 -0 -0 -0 -0 -0 -0 -0 -0 -0 -0 -0 -0 -0 -0 -0 -0 -0 -0 -0 -0 -0 -0 -0 -0 -0 -0 -0 -0 -0 -0 -0 -0 -0 -0 -0 -0
-3 -0 -0 -0 -0 -0 -0 -0 -0 -0 -0 -0 -0 -0 -0 -0 -0 -0 -0 -0 -0 -0 -0 -0 -0 -0 -0 -0 -0 -0 -0 -0 -0 -0 -0 -0 -0 -0 -0 -0 -0 -0 -0 -0 -0
-0 -0 -0 -0 -0 -0 -0 -0 -0 -0 -0 -0 -0 -0 -0 -0 -0 -0 -0 -0 -0 -0 -0 -0 -0 -0 -0 -0 -0 -0 -0 -0 -0 -0 -0 -0 -0 -0 -0 -0 -0 -0 -0 -0 -0
-0 -0 -0 -0 -0 -0 -0 -0 -0 -0 -0 -0 -0 -0 -0 -0 -0 -0 -0 -0 -0 -0 -0 -0 -0 -0 -0 -0 -0 -0 -0 -0 -0 -0 -0 -0 -0 -0 -0 -0 -0 -0 -0 -0 -0
-0 -0 -0 -0 -0 -0 -0 -0 -0 -0 -0 -0 -0 -0 -0 -0 -0 -0 -0 -0 -0 -0 -0 -0 -0 -0 -0 -0 -0 -0 -0 -0 -0 -0 -0 -0 -0 -0 -0 -0 -0 -0 -0 -0 -0
-0 -0 -0 -0 -0 -0 -0 -0 -0 -0 -0 -0 -0 -0 -0 -0 -0 -0 -0 -0 -0 -0 -0 -0 -0 -0 -0 -0 -0 -0 -0 -0 -0 -0 -0 -0 -0 -0 -0 -0 -0 -0 -0 -0 -0
-0 -0 -0 -0 -0 -0 -0 -0 -0 -0 -0 -0 -0 -0 -0 -0 -0 -0 -0 -0 -0 -0 -0 -0 -0 -0 -0 -0 -0 -0 -0 -0 -0 -0 -0 -0 -0 -0 -0 -0 -0 -0 -0 -0 -0
-0 -0 -0 -0 -0 -0 -0 -0 -0 -0 -0 -0 -0 -0 -0 -0 -0 -0 -0 -0 -0 -0 -0 -0 -0 -0 -0 -0 -0 -0 -0 -0 -0 -0 -0 -0 -0 -0 -0 -0 -0 -0 -0 -0 -0
-0 -0 -0 -0 -0 -0 -0 -0 -0 -0 -0 -0 -0 -0 -0 -0 -0 -0 -0 -0 -0 -0 -0 -0 -0 -0 -0 -0 -0 -0 -0 -0 -0 -0 -0 -0 -0 -0 -0 -0 -0 -0 -0 -0 -0
-0 -0 -0 -0 -0 -0 -0 -0 -0 -0 -0 -0 -0 -0 -0 -0 -0 -0 -0 -0 -0 -0 -0 -0 -0 -0 -0 -0 -0 -0 -0 -0 -0 -0 -0 -0 -0 -0 -0 -0 -0 -0 -0 -0 -0
-0 -0 -0 -0 -0 -2 -0 -0 -0 -0 -0 -0 -0 -0 -0 -0 -0 -0 -0 -0 -0 -0 -0 -0 -0 -0 -0 -0 -0 -0 -0 -0 -0 -0 -0 -0 -0 -0 -0 -0 -0 -0 -0 -0 -0
-0 -0 -0 -0 -0 -13 -0 -0 -0 -0 -0 -0 -0 -0 -0 -0 -0 -0 -0 -0 -0 -0 -0 -0 -0 -0 -0 -0 -0 -0 -0 -0 -0 -0 -0 -0 -0 -0 -0 -0 -0 -0 -0 -0 -0
-0 -0 -0 -0 -4 -3 -0 -0 -0 -0 -0 -0 -0 -0 -0 -0 -0 -0 -0 -0 -0 -0 -0 -0 -0 -0 -0 -0 -0 -0 -0 -0 -0 -0 -0 -0 -0 -0 -0 -0 -0 -0 -0 -0 -0
-0 -0 -0 -53 -0 -1 -0 -0 -0 -0 -0 -0 -0 -0 -0 -0 -0 -0 -0 -0 -0 -0 -0 -0 -0 -0 -0 -0 -0 -0 -0 -0 -0 -0 -0 -0 -0 -0 -0 -0 -0 -0 -0 -0 -0
-0 -0 -0 -40 -0 -0 -1 -3 -4 -0 -0 -0 -0 -0 -0 -0 -0 -0 -0 -0 -0 -0 -0 -0 -0 -0 -0 -0 -0 -0 -0 -0 -0 -0 -0 -0 -0 -0 -0 -0 -0 -0 -0 -0 -0
-0 -0 -0 -0 -2 -3 -4 -2 -0 -3 -0 -0 -0 -0 -0 -0 -0 -0 -0 -0 -0 -0 -0 -0 -0 -0 -0 -0 -0 -0 -0 -0 -0 -0 -0 -0 -0 -0 -0 -0 -0 -0 -0 -0 -0
-0 -0 -0 -0 -1 -0 -15 -4 -12 -2 -2 -0 -5 -0 -0 -0 -0 -0 -0 -0 -0 -0 -0 -0 -0 -0 -0 -0 -0 -0 -0 -0 -0 -0 -0 -0 -0 -0 -0 -0 -0 -0 -0 -0 -0
-0 -0 -0 -0 -0 -0 -0 -0 -5 -0 -0 -0 -0 -0 -0 -0 -0 -0 -0 -0 -0 -0 -0 -0 -0 -0 -0 -0 -0 -0 -0 -0 -0 -0 -0 -0 -0 -0 -0 -0 -0 -0 -0 -0 -0
-8 -0 -2 -0 -0 -0 -0 -0 -5 -0 -0 -0 -0 -0 -0 -0 -0 -0 -0 -0 -0 -0 -0 -0 -0 -0 -0 -0 -0 -0 -0 -0 -0 -0 -0 -0 -0 -0 -0 -0 -0 -0 -0 -0 -0
Wind_Speed
23 22 22 21 21 20 20 20 20 20 20 20 21 21 21 20 18 13 12 13 13 11 17 18 17 16 14 16 15 14 18 21 24 24 22 14 16 16 15 13 17 19 19 20 29
22 21 20 20 20 19 19 20 19 20 20 21 21 21 21 20 7 11 13 13 14 10 15 17 16 16 16 16 15 14 15 20 20 20 18 18 22 12 16 17 20 21 20 19 28
21 22 21 20 20 20 19 19 20 20 21 21 22 22 21 19 13 15 15 14 13 13 18 15 16 17 17 17 16 12 21 20 21 18 18 21 21 18 15 24 25 26 27 29 30
14 19 21 20 20 20 20 20 20 21 21 22 22 22 21 15 13 13 13 13 12 12 14 15 16 16 17 18 19 22 21 23 22 21 22 23 22 24 26 26 25 29 29 28 29
12 14 16 19 21 21 21 21 22 22 22 22 22 22 19 11 11 12 13 13 13 13 14 16 15 15 15 17 19 21 23 22 23 23 25 24 26 27 29 27 24 28 31 29 28
12 14 16 17 20 22 23 23 23 23 23 22 22 22 13 10 12 13 13 14 13 14 12 14 15 16 18 17 17 18 20 23 24 24 23 25 26 25 26 31 28 32 30 29 28
17 17 17 18 20 23 24 25 24 23 23 22 22 19 8 11 12 11 12 12 14 14 13 13 15 16 16 16 17 19 21 23 25 23 22 22 27 30 30 23 33 33 31 29 28
25 22 20 21 21 22 25 25 25 24 22 22 18 15 8 12 15 9 10 10 12 13 13 13 14 17 17 16 16 16 15 17 16 21 20 18 24 23 25 33 31 34 33 30 28
29 28 26 24 24 24 25 27 25 22 17 15 15 12 8 21 9 10 9 12 12 12 12 13 14 16 15 16 15 15 16 18 18 22 18 21 22 21 22 29 33 34 34 31 33
30 30 30 29 27 26 25 23 21 18 15 15 17 15 1 10 11 12 11 10 12 15 15 16 15 16 16 17 15 15 15 17 19 19 24 24 29 28 25 28 32 34 34 34 34
31 31 31 30 30 28 25 19 21 20 19 8 11 10 14 12 15 12 13 11 15 19 18 17 18 19 18 20 20 19 19 20 21 20 23 28 31 31 32 33 36 36 35 35 34
31 31 31 30 29 27 24 20 20 19 26 26 22 24 15 19 12 10 11 10 13 20 19 19 22 21 20 19 20 21 22 22 22 20 23 27 32 34 35 36 39 38 38 36 35
32 32 31 30 27 23 21 23 24 22 22 25 12 9 2 2 10 6 7 10 12 22 21 22 20 17 14 22 22 22 22 22 24 24 26 27 30 29 29 36 38 39 38 37 36
31 31 31 30 19 26 17 26 25 18 23 18 16 14 10 9 14 11 4 9 11 21 23 24 23 13 21 25 21 24 21 22 24 24 25 21 28 29 28 31 37 40 39 38 38
30 30 30 27 24 21 26 27 24 16 21 14 14 14 11 8 14 16 12 10 9 16 18 20 18 16 20 22 18 24 22 23 24 25 26 25 27 28 25 31 35 40 39 39 39
31 31 30 22 23 20 29 28 16 19 18 13 13 13 11 10 16 15 12 13 14 19 21 28 21 18 18 17 18 18 24 25 24 24 29 26 27 28 29 31 31 35 40 40 40
32 32 30 24 21 27 29 19 19 17 18 15 13 12 11 10 9 13 12 12 14 20 24 27 24 20 17 20 21 19 23 27 27 27 30 23 27 34 27 28 27 33 39 41 40
34 32 23 22 23 26 21 17 19 20 20 17 15 14 15 11 12 7 13 14 15 18 23 23 24 13 15 16 19 18 23 27 30 29 28 25 29 26 23 25 30 30 32 20 27
33 26 23 20 20 16 17 22 22 20 22 20 18 20 21 18 16 13 9 12 13 3 17 19 24 19 17 16 14 18 26 22 29 30 33 31 31 33 30 31 26 29 24 17 18
30 26 24 23 18 15 20 25 23 20 24 22 22 18 22 19 15 12 14 16 14 3 7 20 26 21 19 19 19 20 18 26 27 32 34 32 32 32 27 25 24 26 24 16 12
27 27 20 23 14 19 25 26 26 26 26 25 24 24 22 22 18 18 19 19 15 15 3 16 24 23 20 20 21 21 26 26 26 29 33 33 31 22 25 25 29 29 23 17 13
26 27 22 21 22 24 29 26 27 30 26 28 26 26 25 24 25 22 22 20 17 13 12 11 20 29 30 27 24 25 27 26 35 36 34 36 44 25 27 27 26 29 27 26 20
28 27 23 21 28 30 31 31 34 37 35 30 30 25 25 29 30 26 26 26 24 20 19 14 20 25 30 27 26 28 29 30 31 33 44 43 38 20 22 21 21 21 22 24 25
27 30 25 24 27 29 32 34 34 34 36 33 35 38 40 38 32 33 31 26 26 27 23 20 22 21 25 29 25 28 27 30 34 44 44 58 52 49 40 31 27 23 21 24 27
26 29 27 30 26 32 33 35 34 34 32 35 31 32 35 39 40 41 38 38 32 29 27 27 31 29 32 36 37 40 42 37 41 43 50 45 54 47 49 51 47 40 38 33 33
30 30 30 33 34 36 32 31 36 43 39 39 40 38 38 39 42 48 44 40 39 33 30 30 36 34 40 38 40 52 54 50 51 51 56 53 63 49 48 46 49 49 42 39 35
26 27 31 33 34 36 37 37 35 37 35 34 40 43 44 41 42 46 48 45 45 43 37 33 34 35 44 37 43 56 54 54 52 50 50 58 63 52 52 48 50 51 48 48 49
Wind_Direction
327 319 313 304 299 293 289 288 286 282 282 281 282 283 284 280 271 59 74 68 64 68 254 274 297 291 288 274 276 279 270 262 254 250 255 273 279 298 306 301 257 243 229 213 147
325 314 306 305 300 291 285 281 276 277 278 278 281 283 281 282 177 86 80 75 65 106 36 295 254 279 277 280 284 278 279 265 265 258 257 264 263 316 295 268 249 231 228 217 135
314 314 309 303 300 293 284 279 274 273 274 276 280 280 277 273 83 73 79 78 87 102 0 238 238 250 248 264 270 299 253 255 251 263 264 265 273 286 292 240 218 206 193 156 156
287 299 304 301 297 292 286 279 274 271 272 276 278 278 275 33 80 86 84 83 99 116 249 282 276 261 243 246 245 222 236 239 253 260 265 266 275 266 242 234 220 202 164 153 157
278 283 285 292 294 291 286 279 274 271 268 272 276 280 304 93 125 90 85 94 100 107 266 261 277 287 287 264 253 238 232 248 254 261 265 270 258 244 232 226 229 198 171 162 162
274 281 284 285 287 288 286 280 272 267 264 266 272 280 351 127 87 80 85 87 97 100 227 285 254 246 255 261 266 261 256 250 252 259 261 250 242 242 233 219 221 186 171 171 171
282 284 285 287 286 286 285 279 270 263 259 259 269 314 66 156 26 86 83 87 94 100 155 200 238 231 242 254 254 258 251 252 234 244 247 242 234 219 217 230 207 192 179 177 178
297 292 290 292 290 287 285 278 269 257 251 255 312 352 129 327 329 108 82 99 118 121 129 161 204 208 209 218 240 248 265 256 254 237 236 242 225 228 227 210 216 197 192 186 183
312 307 299 296 294 292 288 281 266 253 325 343 340 14 141 281 110 134 92 132 129 144 155 181 211 211 225 226 232 235 233 234 242 218 240 233 229 238 234 217 220 205 201 191 202
310 308 306 302 299 297 293 280 301 320 339 340 318 345 12 87 30 17 38 64 143 204 217 210 224 215 216 218 231 233 239 239 237 242 235 235 229 235 239 231 222 212 203 202 205
308 302 300 302 303 301 303 9 310 312 310 19 347 7 347 4 335 13 360 31 325 274 235 249 239 216 225 211 223 244 249 257 261 260 241 233 237 238 237 235 226 223 216 210 206
306 305 300 298 299 307 357 22 346 324 279 256 213 215 189 297 352 35 14 24 346 265 272 264 228 216 231 243 258 270 276 270 263 263 256 251 245 245 241 234 220 213 214 211 212
306 306 304 299 293 349 3 355 326 333 321 267 341 337 354 12 339 23 72 19 344 274 280 271 268 294 310 266 273 282 281 274 261 268 261 260 250 246 247 236 230 215 214 212 208
301 303 306 299 345 326 6 305 304 3 320 329 331 345 345 350 327 324 1 1 351 290 280 282 284 311 291 270 289 281 280 278 271 268 247 267 239 247 246 239 224 212 210 209 208
303 303 306 310 320 327 322 293 318 10 330 3 2 355 351 3 337 327 323 321 341 315 307 293 304 311 296 293 308 280 280 280 277 265 262 255 245 245 253 235 227 211 208 207 206
304 303 304 323 317 325 306 311 2 335 338 3 7 10 15 353 335 335 334 326 324 308 302 279 300 306 306 311 307 306 282 282 281 268 249 253 245 244 243 239 240 231 214 212 207
304 303 307 313 313 310 309 330 321 323 333 344 357 15 25 19 2 345 339 320 315 304 294 286 288 296 305 299 298 298 280 259 252 247 245 260 251 239 252 252 251 238 215 214 210
309 309 318 311 310 307 320 312 305 315 311 325 335 341 336 354 353 4 342 331 311 303 296 294 294 310 303 297 296 291 273 256 247 249 252 261 248 256 264 264 256 249 242 242 180
312 317 315 317 314 317 304 290 300 305 311 311 313 312 313 316 326 334 337 333 332 266 299 298 292 304 304 303 305 291 268 276 264 266 257 255 261 269 270 260 262 250 261 255 180
312 311 309 307 305 305 290 287 293 307 310 307 299 307 307 315 314 322 328 333 342 328 296 298 288 296 297 296 294 289 286 264 264 256 252 254 256 253 272 268 263 259 262 260 244
311 303 310 310 302 290 283 285 289 292 305 301 298 299 301 305 304 306 311 316 323 328 291 305 289 292 293 288 287 285 273 272 270 263 255 256 257 277 273 280 265 262 266 262 253
310 297 310 310 283 286 282 289 291 288 296 295 296 294 295 300 299 297 297 304 319 326 327 300 307 285 283 285 287 282 276 272 259 259 261 261 252 284 282 284 281 269 265 262 262
304 299 304 302 286 281 285 287 286 281 281 288 287 292 296 293 293 294 295 293 297 299 306 307 300 299 287 287 284 280 275 270 272 271 255 254 254 282 291 297 301 289 279 270 265
304 296 299 296 289 290 288 286 283 285 283 283 284 282 284 282 284 286 288 296 293 292 294 293 290 288 288 286 290 283 282 272 264 259 260 245 255 257 265 277 284 293 293 286 274
299 295 296 291 292 291 287 286 288 289 286 283 286 285 283 281 280 279 282 282 286 288 287 286 283 285 285 282 280 276 274 273 263 263 257 263 255 265 264 262 268 279 283 285 276
291 291 293 289 289 288 290 288 285 282 283 283 282 286 284 284 281 278 281 278 278 283 283 282 282 284 281 283 283 271 266 268 265 264 263 266 254 266 271 272 269 268 275 276 278
293 294 292 289 288 286 283 285 285 293 288 285 286 288 282 283 290 285 279 278 276 275 277 279 278 283 280 284 285 271 265 266 267 266 266 260 252 268 268 272 269 264 268 268 266